RH
45 46 48 48 47 46 44 43 47 54 57 53 49 51 55 59 59 63 69 70 67 66 67 70 72 72 72 71 70 72 73 73 75 76 75 74 71 65 60 57 54 48 43 39 37 37 36 37 38 39 41 41 41 42 43 43 45 48 49 47 42 42 47 54 55 53 52 54 59 65 67 67 73 76 72 69 69 69 69 69 70 72 73 73 73
46 47 47 47 46 45 45 44 46 53 57 55 53 54 57 58 59 63 67 69 67 64 67 71 72 72 71 71 71 72 73 73 73 71 69 69 65 58 52 49 45 40 36 33 33 33 35 37 39 40 41 41 41 42 43 44 45 47 47 45 42 41 45 50 52 51 50 53 56 62 65 65 69 72 70 69 69 68 67 66 68 70 70 70 70
47 47 46 46 44 45 47 47 47 52 56 57 56 55 57 58 59 61 63 66 67 66 67 69 71 72 72 71 71 71 73 73 71 68 64 62 58 53 48 44 40 36 33 31 32 32 35 38 38 38 39 40 41 41 41 43 45 47 46 44 41 41 44 46 48 46 48 51 54 59 63 62 64 68 69 68 67 65 63 63 65 66 67 67 65
48 48 47 44 43 48 50 48 48 50 52 56 55 54 55 56 57 58 61 64 66 67 68 68 69 71 71 71 71 72 73 71 68 64 61 58 55 51 47 43 39 35 32 31 32 33 35 36 35 35 35 37 38 37 38 40 42 44 44 42 40 41 43 44 47 46 48 50 52 56 58 58 61 65 66 65 63 61 59 60 62 62 63 64 62
48 48 48 45 48 54 53 50 50 50 51 54 53 51 52 54 57 59 60 63 65 68 70 70 69 69 69 70 72 72 68 66 64 59 57 55 51 47 44 41 39 37 36 35 35 35 34 33 32 30 29 29 30 31 33 36 39 41 42 41 41 41 43 44 45 47 50 52 51 52 55 56 60 63 63 62 61 57 55 57 59 59 60 61 61
49 50 49 48 54 58 57 55 52 52 53 54 52 50 52 55 59 61 62 64 65 67 71 71 68 68 67 66 67 66 62 59 57 53 51 48 44 41 39 39 39 39 38 37 35 33 32 30 28 25 23 22 23 24 25 28 33 36 39 41 41 42 43 43 43 45 51 55 53 50 51 53 55 56 56 57 59 57 54 55 56 57 59 61 62
51 53 52 52 59 60 58 57 54 54 57 55 53 52 53 56 61 63 65 66 66 66 70 69 67 68 65 61 60 61 59 54 51 48 46 41 38 38 39 39 40 38 36 34 32 30 28 27 25 24 22 21 20 20 20 22 25 28 33 37 39 40 41 41 40 42 48 53 54 51 50 50 51 51 50 51 54 56 56 56 56 57 57 60 62
52 53 52 55 60 58 57 56 53 56 59 58 55 54 54 57 61 64 65 66 66 67 70 69 68 67 64 62 63 63 59 53 49 47 45 40 38 41 43 43 42 40 36 35 32 29 27 27 26 25 23 21 20 20 21 21 22 24 28 32 35 37 38 37 37 40 45 48 51 51 50 49 50 50 48 47 49 53 56 56 56 57 57 59 62
55 55 54 57 60 59 60 59 56 58 60 58 57 56 54 55 59 63 65 65 66 68 69 69 71 69 66 65 66 65 60 53 51 50 47 43 43 48 50 48 47 46 42 39 36 32 30 29 29 28 26 24 24 24 24 23 22 26 29 31 33 35 36 36 35 38 43 46 47 49 49 49 50 49 47 46 46 48 52 54 55 55 56 59 62
61 61 59 60 63 65 65 62 62 62 61 59 59 57 54 54 58 63 66 66 66 68 69 71 74 72 70 68 65 62 57 53 55 56 51 48 52 56 55 53 52 51 46 44 42 39 36 34 32 32 30 29 28 28 25 22 23 25 28 31 34 36 37 36 36 37 39 43 44 45 46 46 47 46 43 42 42 43 46 51 52 51 54 59 61
65 64 62 63 67 68 65 64 64 63 61 60 58 57 55 56 60 64 65 65 65 67 70 74 76 73 70 67 61 56 53 54 58 54 49 51 56 58 58 56 55 53 50 47 46 46 43 38 34 32 31 30 29 27 24 23 23 24 27 29 32 35 35 36 38 38 38 40 41 43 43 42 42 41 39 39 40 40 44 48 50 50 52 55 57
70 67 64 65 69 68 64 64 63 59 58 57 56 57 58 60 62 63 63 63 64 67 71 76 76 72 68 65 63 59 54 55 57 53 50 51 54 57 58 56 54 54 53 48 47 48 45 40 36 32 30 27 26 26 26 25 25 25 25 27 30 31 32 34 36 37 39 40 40 41 41 40 40 39 38 38 38 39 42 46 48 48 50 53 55
71 69 67 67 69 68 64 62 59 55 53 53 54 57 60 62 62 62 62 61 62 65 70 76 76 71 68 67 68 66 59 54 55 54 54 54 54 55 56 55 53 52 51 48 49 50 47 42 38 34 29 24 25 27 29 28 28 28 28 28 28 29 31 33 33 35 39 41 40 39 38 39 39 40 39 38 40 42 42 43 46 48 51 55 56
69 72 72 70 70 67 61 56 52 50 50 52 52 55 59 62 61 61 61 61 61 64 69 74 74 71 71 71 70 69 61 54 53 54 56 58 58 57 55 54 52 50 49 51 54 53 50 46 41 36 29 24 25 28 29 30 31 32 32 31 30 30 30 32 33 34 37 38 37 36 36 37 39 40 41 41 42 44 42 42 46 49 48 48 48
71 74 74 73 73 68 60 54 50 49 51 51 52 54 55 59 60 60 60 60 61 64 67 69 69 71 73 74 72 68 60 53 55 57 58 61 62 61 59 57 56 53 51 53 56 56 53 49 45 39 31 27 26 27 28 31 33 35 35 34 32 30 29 29 30 32 33 34 34 34 34 35 37 38 39 41 41 41 40 39 42 43 41 41 41
72 74 72 70 70 69 64 57 54 53 52 52 54 55 54 57 60 61 60 59 58 62 65 67 68 69 71 72 70 65 58 55 59 63 64 63 63 63 63 62 59 55 53 56 59 58 55 51 47 42 37 33 30 28 27 29 32 35 36 36 34 31 28 27 26 28 29 31 32 33 33 33 33 33 33 36 36 36 36 37 37 35 35 37 38
72 73 71 67 66 68 66 62 60 59 55 54 56 57 55 56 60 63 63 60 58 59 61 63 66 68 69 69 64 61 60 59 61 65 67 65 63 65 66 64 60 57 56 59 62 61 58 54 50 46 43 40 36 32 28 26 28 31 34 36 35 32 30 27 26 27 28 28 30 31 31 29 29 29 29 30 30 30 32 35 35 33 31 31 32
73 74 71 68 68 69 68 65 66 67 63 59 59 60 59 59 63 66 67 64 61 60 60 60 61 64 66 64 59 59 60 60 62 65 64 62 62 66 67 64 63 62 61 61 61 60 58 55 52 48 46 43 40 36 31 27 26 28 31 32 31 29 27 27 27 27 28 28 30 31 30 28 27 28 28 28 27 27 29 32 35 36 33 30 28
74 75 73 71 72 72 72 70 71 74 73 67 66 68 66 65 69 71 72 70 66 63 63 61 60 60 61 61 59 60 59 59 61 61 59 59 62 64 63 62 62 63 63 62 58 54 54 54 54 52 50 47 43 40 37 32 30 30 30 28 26 24 24 26 28 29 30 31 30 30 30 29 28 28 29 28 27 26 26 29 34 35 32 29 27
75 76 75 75 76 74 76 78 78 80 81 77 75 75 72 71 73 74 74 73 70 67 65 63 60 60 62 63 64 65 65 62 60 58 58 62 65 63 60 58 58 60 62 60 55 51 51 53 55 54 52 50 48 45 42 39 37 36 34 31 28 26 26 28 31 32 33 33 32 30 30 30 30 29 28 27 27 26 26 27 29 30 28 28 28
77 77 76 78 78 77 80 84 83 82 81 78 76 76 76 76 75 75 75 75 74 71 69 68 65 64 67 70 69 68 68 66 61 59 62 67 68 65 61 59 59 60 62 61 57 52 51 53 55 54 53 54 54 50 46 45 44 42 40 37 35 33 31 32 35 37 36 36 36 35 34 34 33 32 30 28 28 28 28 28 27 27 28 29 29
78 80 80 79 77 77 81 85 85 83 79 77 75 76 77 77 79 81 78 76 75 72 71 74 73 70 70 72 72 69 68 66 62 60 65 69 70 69 66 63 62 63 64 64 60 54 53 54 55 54 54 56 57 55 51 48 47 45 43 41 39 38 37 37 38 40 39 39 40 40 40 40 39 39 37 35 34 34 35 35 34 34 34 35 37
80 81 81 80 75 73 76 79 80 79 77 77 78 79 80 80 81 82 80 77 76 75 73 73 73 71 70 73 74 73 72 69 65 64 67 70 72 74 72 69 68 66 66 67 63 58 56 56 54 54 55 58 59 58 55 51 49 47 44 43 42 41 41 41 40 41 40 40 42 43 44 46 46 45 45 44 43 43 43 43 43 43 43 44 45
81 79 77 77 76 74 76 78 80 80 79 79 79 81 82 79 76 75 79 80 80 80 77 74 73 74 73 75 77 78 78 74 70 70 69 69 74 77 75 71 68 66 66 67 64 59 57 55 54 54 56 59 60 58 56 52 50 50 48 47 46 45 46 46 44 43 42 41 41 43 46 49 50 49 49 49 49 48 47 47 48 50 50 52 52
79 77 75 78 80 79 79 82 85 85 84 83 83 82 80 77 74 72 74 76 77 81 82 79 79 79 76 75 78 81 80 77 75 73 67 68 75 77 75 72 69 67 67 66 64 62 60 58 56 56 57 61 63 60 58 55 52 52 52 51 51 50 51 53 53 50 48 44 43 45 47 50 52 53 53 55 54 52 52 53 53 53 54 56 56
76 75 77 81 84 83 83 85 86 85 83 84 85 83 79 77 77 74 72 73 76 81 86 86 85 84 80 79 81 83 81 81 82 76 69 69 73 74 74 74 73 71 68 67 68 67 64 60 57 56 59 63 63 59 57 55 53 52 53 54 55 54 55 57 58 59 56 53 50 50 51 53 55 57 58 58 58 57 57 56 55 53 54 57 58
75 75 78 83 86 86 84 84 83 82 81 82 83 81 77 75 75 73 72 77 82 83 88 91 89 86 85 84 85 87 85 86 87 81 74 74 74 75 77 76 74 73 69 67 67 66 63 59 57 57 59 61 58 55 53 53 54 54 53 56 58 58 58 59 61 63 63 62 61 61 61 61 60 59 58 58 60 62 62 59 56 55 57 59 60
76 75 78 82 84 84 82 81 81 80 80 80 78 76 75 74 74 71 69 74 79 81 87 91 88 85 85 86 87 89 87 86 86 81 78 76 75 75 75 72 70 70 70 69 66 64 62 59 57 58 58 58 57 55 54 56 60 64 64 65 66 65 64 63 64 65 66 67 69 69 70 70 67 63 60 60 62 64 63 61 59 58 59 61 61
74 73 75 79 79 78 79 79 80 79 77 75 73 73 74 73 72 70 69 71 73 75 81 85 84 82 83 84 86 87 84 80 76 73 70 68 67 67 66 62 61 63 68 70 65 61 60 59 58 59 59 59 61 61 60 60 65 71 74 74 73 71 69 67 66 66 68 69 69 70 71 71 69 67 65 64 65 66 64 62 61 61 61 63 62
72 70 70 72 73 74 75 77 78 76 73 71 69 70 72 71 69 67 67 68 70 71 73 75 77 78 76 76 78 78 75 70 64 60 58 59 61 62 59 59 60 63 66 66 61 59 60 60 61 61 61 62 65 66 66 64 65 71 75 76 74 72 71 70 68 69 71 71 69 68 66 65 66 68 68 68 68 67 66 64 63 63 63 64 61
73 71 69 69 71 72 72 73 75 72 71 71 70 70 71 69 68 67 66 65 66 68 69 68 69 70 68 68 69 68 67 65 62 59 58 58 59 59 59 63 67 67 63 59 56 55 56 56 58 58 59 62 64 67 69 68 68 71 73 73 71 71 72 73 72 72 71 68 66 63 61 61 62 64 67 68 69 69 68 65 64 64 63 61 58
74 72 70 70 71 72 71 71 73 73 72 73 73 73 71 68 67 68 68 67 65 65 67 67 66 64 64 68 70 68 67 68 65 62 60 58 58 58 60 64 66 63 57 53 53 53 53 53 54 55 58 61 64 67 70 70 70 71 71 70 68 68 69 70 70 69 67 65 63 60 59 58 57 57 61 65 68 69 68 66 65 64 62 59 56
77 75 73 71 70 71 71 72 74 75 76 76 77 76 73 70 68 69 71 71 69 68 68 68 67 65 66 69 71 68 66 65 62 61 62 62 63 63 63 63 64 61 57 55 57 57 56 55 57 59 62 65 66 68 70 69 67 68 69 68 66 63 61 60 61 63 65 66 64 61 59 57 56 57 60 63 66 69 69 67 66 65 62 60 58
80 78 76 74 72 71 73 76 79 81 82 81 80 80 78 75 72 71 70 71 70 70 70 70 68 67 68 71 72 68 64 64 64 67 70 70 70 71 69 68 69 68 65 65 63 61 60 61 65 68 70 69 70 71 72 71 69 68 68 67 65 62 59 58 58 60 62 63 62 59 58 58 58 59 60 63 66 68 68 68 67 65 63 59 54
82 81 79 77 76 74 74 76 79 83 86 85 82 81 80 77 73 71 70 69 68 68 70 69 67 68 71 75 77 73 69 70 75 79 81 79 77 79 77 74 73 71 71 73 71 67 68 71 74 75 74 73 73 73 72 71 70 69 68 66 63 60 59 57 55 55 56 57 58 57 58 60 60 59 60 62 66 68 69 68 65 62 56 50 44
86 84 83 81 80 80 80 78 78 80 84 85 84 82 80 76 71 69 68 67 68 68 70 69 68 69 71 72 74 74 72 73 75 76 79 79 80 84 84 81 79 77 75 78 78 75 76 78 79 78 77 77 77 76 73 70 67 65 63 62 59 57 55 55 54 54 55 54 54 55 58 60 59 58 59 61 65 68 68 65 60 55 49 45 43
91 90 88 85 83 83 82 81 79 79 80 81 81 80 80 78 74 71 69 68 68 68 68 68 67 67 68 68 69 69 70 72 72 72 73 74 75 79 81 80 80 78 77 81 84 80 78 80 80 78 77 77 76 75 72 68 64 63 61 59 56 53 52 52 54 55 54 52 52 54 57 59 58 57 57 57 59 61 61 59 56 54 51 47 45
91 91 89 89 89 88 85 83 82 81 81 82 81 79 79 80 79 77 74 72 70 68 66 66 65 63 64 66 69 70 70 70 72 72 70 70 71 73 76 78 78 76 74 76 79 79 76 73 72 70 68 66 65 65 63 62 60 59 58 55 52 51 50 52 54 54 52 52 54 56 58 59 59 59 58 57 56 56 57 57 56 55 51 47 45
87 85 85 87 90 90 89 89 88 86 86 86 85 83 81 81 82 81 80 76 73 69 68 68 67 66 66 67 68 69 70 70 71 71 69 68 68 68 69 70 70 67 64 63 64 65 64 62 62 60 58 56 56 57 56 56 56 54 53 52 50 50 50 52 53 54 53 54 56 57 58 59 60 62 63 61 60 59 58 55 52 49 45 43 43
82 80 80 83 86 88 89 89 88 87 87 87 88 88 87 87 87 86 85 83 79 75 73 71 71 72 76 77 75 73 72 71 71 71 68 66 65 65 64 62 60 57 56 56 57 57 57 59 60 59 57 56 55 55 56 56 55 54 53 52 50 50 51 53 55 56 56 57 58 59 59 59 60 63 64 63 61 59 54 48 44 42 41 41 42
77 75 74 76 80 84 86 85 84 83 81 82 86 88 88 89 89 88 87 88 88 85 81 77 74 75 78 81 81 80 79 77 75 74 71 69 69 69 69 66 64 62 61 61 61 61 62 63 64 64 64 63 62 62 62 61 61 59 57 55 53 53 55 57 59 60 61 62 62 63 62 61 60 60 61 61 58 52 46 41 39 39 40 41 41
76 75 74 73 74 76 76 78 82 83 82 81 82 83 81 81 83 85 86 87 89 88 86 84 82 81 80 79 79 79 79 79 79 77 76 75 75 76 75 73 72 72 71 70 69 68 67 67 67 67 68 69 70 70 68 66 66 64 62 59 58 58 59 60 61 62 63 65 66 66 65 62 60 58 57 55 50 44 40 39 39 40 41 42 43
73 76 77 76 75 75 75 76 80 82 82 81 79 78 78 78 79 81 83 84 85 86 86 87 87 86 85 84 82 81 79 79 78 78 78 78 78 78 78 78 78 79 79 78 76 75 74 74 74 73 72 73 75 74 70 67 67 67 65 63 62 62 61 61 60 60 61 65 68 68 64 60 57 55 54 50 43 40 40 40 41 43 45 45 44
72 74 76 75 76 77 77 77 77 77 77 76 75 75 75 74 75 76 77 78 79 79 80 81 82 83 82 82 81 80 80 79 78 78 77 78 78 78 78 78 79 81 82 82 82 81 82 82 81 78 75 75 77 77 74 71 70 69 68 67 66 64 61 59 58 58 62 68 72 69 64 59 54 52 50 46 43 44 45 45 45 46 47 46 47
73 75 74 73 73 74 73 73 73 74 74 73 73 73 72 70 71 71 71 71 71 71 71 72 73 73 74 75 75 75 76 76 76 76 76 76 77 78 79 79 78 81 83 84 84 84 84 84 83 82 80 79 79 78 78 77 75 73 71 69 68 65 61 59 61 64 69 75 77 73 66 61 56 54 51 48 50 52 51 48 47 48 49 51 53
75 76 76 75 75 74 72 71 71 72 72 72 72 71 70 70 70 69 68 67 66 64 64 64 64 64 64 64 65 66 67 68 68 69 72 72 71 72 74 75 74 76 79 79 77 78 78 78 80 82 84 85 84 83 82 82 81 78 76 74 72 68 64 65 68 70 74 78 79 76 72 66 64 66 63 59 59 59 54 50 51 55 58 60 62
75 76 76 76 75 74 72 72 71 71 71 70 69 68 67 67 67 66 66 65 64 62 62 61 60 60 59 59 59 60 60 61 61 62 64 65 64 63 64 64 63 63 64 64 64 64 67 71 75 78 79 81 83 83 82 81 79 77 75 74 75 74 72 74 75 75 77 80 82 82 79 75 75 77 75 72 71 68 63 61 62 64 65 66 67
76 75 75 74 72 72 71 70 69 69 68 66 65 65 64 64 63 63 62 61 60 60 59 58 58 57 57 57 56 56 56 56 57 57 58 59 59 58 58 58 57 56 55 56 57 58 59 63 68 72 73 75 79 81 82 81 80 79 77 76 76 75 72 74 77 79 79 81 86 90 87 82 81 80 76 78 81 78 73 72 72 70 69 69 70
74 73 72 70 69 67 66 64 62 61 60 58 58 57 57 56 56 55 54 53 51 51 50 50 50 50 50 50 50 49 49 48 48 49 50 50 51 50 49 50 50 50 52 53 55 57 59 60 62 65 67 68 70 73 75 76 77 80 82 83 83 82 79 77 77 79 80 84 90 94 92 87 85 82 81 84 87 84 80 81 82 79 76 75 77
70 68 65 64 62 60 57 55 53 52 51 50 49 49 47 46 44 43 41 39 38 37 37 36 36 35 35 34 34 33 33 32 32 32 31 32 32 33 32 32 31 32 34 37 39 43 46 49 51 54 57 59 62 64 66 68 71 75 78 81 84 88 88 86 83 82 83 85 88 91 91 88 86 86 88 90 89 86 85 87 87 85 82 81 82
58 56 55 53 52 50 49 48 47 46 45 44 43 41 39 36 34 32 30 28 27 26 25 25 24 23 23 22 21 21 20 20 20 20 20 20 20 20 20 20 20 20 20 21 23 24 26 28 30 32 35 38 42 46 49 52 56 61 65 71 77 81 82 83 84 84 85 85 86 86 87 88 88 89 91 93 91 88 87 87 87 86 85 85 85